User: anonymous   Login
Location: Unspecified
(0.0000°N, 0.0000°E)
Time: 05:23:53
(UTC+00:00)
Language:

STARLINK-11376 [DTC] - Orbit

View from above orbital plane
View from above orbital plane
View from above satellite
View from above satellite

Ground track
Ground track

The orbit is defined by the following mean orbital elements,

1 61575U          26145.36586444 +.00000000 +00000-0 +19361-4 0 00009
2 61575  53.1597 278.2328 0000812  92.8497 267.2614 15.69712083    08
Epoch (UTC): 25 May 2026 08:46:50
Eccentricity: 0.0000812
inclination: 53.1597°
perigee height: 359 km
apogee height: 360 km
right ascension of ascending node: 278.2328°
argument of perigee: 92.8497°
revolutions per day: 15.69712083
mean anomaly at epoch: 267.2614°

The dashed part of the orbit path shows where the satellite is in the earth's shadow,  

DLR